Location: ????????
(60.5616°N, 46.8254°E)
Time: 18:20:24
(UTC+00:00)

Cosmos 2082 - Pass Details

Date: 18 February 2020
Orbit: 832 x 857 km, 71.0° (Epoch: 24 March)

Event Time Altitude Azimuth Distance (km) Brightness Sun altitude
Rises 16:58:48 0° 311° (NW) 3,422 8.0 -23.7°
Reaches altitude 10° 17:01:23 10° 318° (NW) 2,488 7.0 -24.0°
Maximum altitude 17:06:50 44° 30° (NNE) 1,173 4.3 -24.6°
Enters shadow 17:07:32 42° 50° (NE) 1,205 4.2 -24.7°
